KINEIS-5D

Last updated on Thu Aug 20 2026 00:02:53 GMT+0000 (Coordinated Universal Time)

1 62082U 24219B 26231.55758253 .00000739 00000+0 12394-3 0 9990 2 62082 97.9225 28.8030 0006323 76.0316 284.1595 14.72544897 93087
UTC large
Height (km)
Speed (km/s)
/
Latitude / Longitude
Inclination (degrees)
Orbital Period (minutes)
Azimuth
Elevation
Range (km)
Doppler Factor

Next 0 passes for location: London (51.5072 / 0.1276)

No passes found over London.
KINEIS-5D